When you browse on this site, cookies collect data to enhance your experience and personalize the content and advertising you see.
Visit our Privacy Policy to learn more. By continuing to use the site, you agree to this use of cookies and data.
  • In Romania
  • List of Countries
  • For 7 days
  • Water Temperature
  • Satellite Maps
  • Weather Map
  • Weather Widgets
  • user-avatar
    Login

    Hourly Weather Lillehammer

    Today, 20 May, Monday

    Time Temperature Precipitation Wind Pressure Humidity
    00:00 +7°C° 0 mm 0 mps 716 mmHg 96%
    01:00 +7°C° 0 mm 1 mps 716 mmHg 96%
    02:00 +8°C° 0 mm 1 mps 716 mmHg 96%
    03:00 +8°C° 0 mm 1 mps 716 mmHg 96%
    04:00 +8°C° 0 mm 1 mps 716 mmHg 96%
    05:00 +9°C° 0 mm 1 mps 715 mmHg 91%
    06:00 +11°C° 0 mm 1 mps 715 mmHg 87%
    07:00 +12°C° 0 mm 1 mps 715 mmHg 82%
    08:00 +14°C° 0 mm 1 mps 715 mmHg 74%
    09:00 +15°C° 0 mm 1 mps 715 mmHg 67%
    10:00 +18°C° 0 mm 1 mps 715 mmHg 59%
    11:00 +18°C° 0 mm 1 mps 715 mmHg 58%
    12:00 +17°C° 0 mm 2 mps 715 mmHg 56%
    13:00 +18°C° 0 mm 2 mps 715 mmHg 55%
    14:00 +17°C° 0.8 mm 2 mps 714 mmHg 65%
    15:00 +15°C° 0.8 mm 1 mps 714 mmHg 76%
    16:00 +14°C° 0.8 mm 1 mps 714 mmHg 86%
    17:00 +14°C° 2 mm 1 mps 714 mmHg 89%
    18:00 +13°C° 2 mm 2 mps 714 mmHg 92%
    19:00 +13°C° 2 mm 2 mps 714 mmHg 95%
    20:00 +13°C° 1.3 mm 2 mps 714 mmHg 96%
    21:00 +13°C° 1.3 mm 2 mps 714 mmHg 96%
    22:00 +12°C° 1.3 mm 1 mps 714 mmHg 96%
    23:00 +12°C° 0.4 mm 1 mps 714 mmHg 97%

    Tomorrow, 21 May, Tuesday

    Time Temperature Precipitation Wind Pressure Humidity
    00:00 +12°C° 0.4 mm 1 mps 714 mmHg 97%
    01:00 +11°C° 0.4 mm 0 mps 714 mmHg 98%
    02:00 +11°C° 0.1 mm 0 mps 714 mmHg 98%
    03:00 +11°C° 0.1 mm 0 mps 714 mmHg 98%
    04:00 +11°C° 0.1 mm 0 mps 714 mmHg 98%
    05:00 +12°C° 0.1 mm 0 mps 714 mmHg 96%
    06:00 +12°C° 0.1 mm 0 mps 714 mmHg 94%
    07:00 +13°C° 0.1 mm 0 mps 714 mmHg 91%
    08:00 +13°C° 0.2 mm 0 mps 714 mmHg 91%
    09:00 +15°C° 0.2 mm 1 mps 714 mmHg 91%
    10:00 +15°C° 0.2 mm 1 mps 714 mmHg 90%
    11:00 +16°C° 0.1 mm 1 mps 714 mmHg 85%
    12:00 +18°C° 0.1 mm 1 mps 714 mmHg 80%
    13:00 +19°C° 0.1 mm 1 mps 714 mmHg 74%
    14:00 +20°C° 0.1 mm 1 mps 714 mmHg 69%
    15:00 +21°C° 0.1 mm 1 mps 714 mmHg 63%
    16:00 +21°C° 0.1 mm 1 mps 714 mmHg 58%
    17:00 +21°C° 0.1 mm 1 mps 714 mmHg 62%
    18:00 +20°C° 0.1 mm 1 mps 714 mmHg 67%
    19:00 +20°C° 0.1 mm 1 mps 714 mmHg 71%
    20:00 +18°C° 0.3 mm 1 mps 714 mmHg 79%
    21:00 +15°C° 0.3 mm 1 mps 714 mmHg 87%
    22:00 +14°C° 0.3 mm 1 mps 714 mmHg 94%
    23:00 +14°C° 0.3 mm 1 mps 714 mmHg 95%

    Day after tomorrow, 22 May, Wednesday

    Time Temperature Precipitation Wind Pressure Humidity
    00:00 +13°C° 0.3 mm 1 mps 713 mmHg 96%
    01:00 +13°C° 0.3 mm 1 mps 713 mmHg 98%
    02:00 +13°C° 0.2 mm 1 mps 713 mmHg 98%
    03:00 +13°C° 0.2 mm 1 mps 713 mmHg 98%
    04:00 +13°C° 0.2 mm 1 mps 713 mmHg 98%
    05:00 +13°C° 0.2 mm 1 mps 713 mmHg 97%
    06:00 +14°C° 0.2 mm 1 mps 712 mmHg 95%
    07:00 +14°C° 0.2 mm 2 mps 712 mmHg 94%
    08:00 +14°C° 1.1 mm 2 mps 712 mmHg 94%
    09:00 +14°C° 1.1 mm 2 mps 712 mmHg 95%
    10:00 +13°C° 1.1 mm 3 mps 712 mmHg 95%
    11:00 +13°C° 2 mm 3 mps 711 mmHg 95%
    12:00 +13°C° 2 mm 3 mps 711 mmHg 96%
    13:00 +13°C° 2 mm 3 mps 711 mmHg 96%
    14:00 +12°C° 3 mm 3 mps 711 mmHg 97%
    15:00 +13°C° 3 mm 2 mps 710 mmHg 97%
    16:00 +13°C° 3 mm 1 mps 710 mmHg 98%
    17:00 +13°C° 1.9 mm 1 mps 710 mmHg 98%
    18:00 +13°C° 1.9 mm 1 mps 709 mmHg 98%
    19:00 +13°C° 1.9 mm 1 mps 709 mmHg 98%
    20:00 +12°C° 0.4 mm 1 mps 709 mmHg 98%
    21:00 +12°C° 0.4 mm 1 mps 709 mmHg 98%
    22:00 +12°C° 0.4 mm 1 mps 708 mmHg 98%
    23:00 +12°C° 0.2 mm 2 mps 708 mmHg 98%

    23 May, Thursday

    Time Temperature Precipitation Wind Pressure Humidity
    00:00 +12°C° 0.2 mm 2 mps 708 mmHg 98%
    01:00 +12°C° 0.2 mm 2 mps 708 mmHg 97%
    02:00 +10°C° 0.1 mm 2 mps 708 mmHg 97%
    03:00 +10°C° 0.1 mm 2 mps 708 mmHg 97%
    04:00 +9°C° 0.1 mm 2 mps 707 mmHg 97%
    05:00 +8°C° 0 mm 2 mps 707 mmHg 95%
    06:00 +8°C° 0 mm 2 mps 707 mmHg 94%
    07:00 +7°C° 0 mm 2 mps 707 mmHg 92%
    08:00 +8°C° 0 mm 2 mps 707 mmHg 89%
    09:00 +8°C° 0 mm 2 mps 707 mmHg 85%
    10:00 +8°C° 0 mm 2 mps 707 mmHg 82%
    11:00 +9°C° 0.1 mm 2 mps 707 mmHg 74%
    12:00 +10°C° 0.1 mm 2 mps 707 mmHg 67%
    13:00 +13°C° 0.1 mm 2 mps 707 mmHg 59%
    14:00 +13°C° 0.3 mm 2 mps 707 mmHg 57%
    15:00 +13°C° 0.3 mm 2 mps 706 mmHg 55%
    16:00 +13°C° 0.3 mm 2 mps 706 mmHg 53%
    17:00 +13°C° 0.1 mm 2 mps 706 mmHg 55%
    18:00 +12°C° 0.1 mm 2 mps 706 mmHg 58%
    19:00 +12°C° 0.1 mm 2 mps 706 mmHg 60%
    20:00 +9°C° 0.1 mm 2 mps 706 mmHg 68%
    21:00 +8°C° 0.1 mm 2 mps 707 mmHg 75%
    22:00 +6°C° 0.1 mm 2 mps 707 mmHg 83%
    23:00 +6°C° 0 mm 2 mps 707 mmHg 86%

    24 May, Friday

    Time Temperature Precipitation Wind Pressure Humidity
    00:00 +6°C° 0 mm 2 mps 707 mmHg 88%
    01:00 +5°C° 0 mm 2 mps 707 mmHg 90%
    02:00 +5°C° 0.3 mm 3 mps 707 mmHg 90%
    03:00 +5°C° 0.3 mm 3 mps 708 mmHg 90%
    04:00 +7°C° 0.3 mm 3 mps 708 mmHg 90%
    05:00 +7°C° 0.2 mm 4 mps 708 mmHg 87%
    06:00 +7°C° 0.2 mm 4 mps 708 mmHg 85%
    07:00 +8°C° 0.2 mm 4 mps 709 mmHg 82%
    08:00 +8°C° 0.1 mm 4 mps 709 mmHg 79%
    09:00 +10°C° 0.1 mm 4 mps 709 mmHg 75%
    10:00 +10°C° 0.1 mm 4 mps 709 mmHg 71%
    11:00 +11°C° 0.2 mm 4 mps 709 mmHg 67%
    12:00 +12°C° 0.2 mm 4 mps 709 mmHg 63%
    13:00 +13°C° 0.2 mm 4 mps 710 mmHg 59%
    14:00 +13°C° 0.1 mm 4 mps 710 mmHg 58%
    15:00 +13°C° 0.1 mm 4 mps 710 mmHg 57%
    16:00 +13°C° 0.1 mm 3 mps 710 mmHg 56%
    17:00 +12°C° 0 mm 3 mps 710 mmHg 59%
    18:00 +11°C° 0 mm 3 mps 710 mmHg 62%
    19:00 +10°C° 0 mm 3 mps 710 mmHg 65%
    20:00 +9°C° 0 mm 2 mps 711 mmHg 71%
    21:00 +7°C° 0 mm 2 mps 711 mmHg 77%
    22:00 +7°C° 0 mm 1 mps 711 mmHg 83%
    23:00 +6°C° 0 mm 1 mps 711 mmHg 84%

    25 May, Saturday

    Time Temperature Precipitation Wind Pressure Humidity
    00:00 +5°C° 0 mm 0 mps 712 mmHg 84%
    01:00 +5°C° 0 mm 0 mps 712 mmHg 85%
    02:00 +5°C° 0 mm 0 mps 712 mmHg 84%
    03:00 +5°C° 0 mm 0 mps 712 mmHg 84%
    04:00 +5°C° 0 mm 0 mps 712 mmHg 84%
    05:00 +6°C° 0 mm 0 mps 712 mmHg 79%
    06:00 +7°C° 0 mm 0 mps 712 mmHg 74%
    07:00 +9°C° 0 mm 1 mps 712 mmHg 68%
    08:00 +10°C° 0 mm 1 mps 712 mmHg 66%
    09:00 +11°C° 0 mm 1 mps 712 mmHg 63%
    10:00 +12°C° 0 mm 1 mps 711 mmHg 60%
    11:00 +13°C° 0 mm 2 mps 711 mmHg 60%
    12:00 +13°C° 0 mm 2 mps 711 mmHg 60%
    13:00 +13°C° 0 mm 2 mps 711 mmHg 59%
    14:00 +14°C° 0 mm 2 mps 710 mmHg 59%
    15:00 +14°C° 0 mm 2 mps 710 mmHg 58%
    16:00 +15°C° 0 mm 2 mps 710 mmHg 58%
    17:00 +14°C° 0.1 mm 2 mps 710 mmHg 63%
    18:00 +14°C° 0.1 mm 2 mps 709 mmHg 68%
    19:00 +12°C° 0.1 mm 3 mps 709 mmHg 73%
    20:00 +12°C° 0.1 mm 2 mps 709 mmHg 81%
    21:00 +10°C° 0.1 mm 2 mps 709 mmHg 88%
    22:00 +9°C° 0.1 mm 1 mps 709 mmHg 96%
    23:00 +9°C° 0.1 mm 1 mps 709 mmHg 96%
    Show more